Location: Baia Mare
(47.6567°N, 23.5850°E)
Time: 02:24:35
(UTC+03:00)

ISS - Pass Details

Date: 07 August 2018
Orbit: 402 x 408 km, 51.6° (Epoch: 18 July)

Event Time Altitude Azimuth Distance (km) Brightness Sun altitude
Rises 21:58:55 0° 287° (WNW) 2,321 1.4 -10.4°
Maximum altitude 22:03:44 18° 222° (SW) 1,062 -1.7 -11.1°
Drops below altitude 10° 22:06:04 10° 176° (S) 1,453 -1.4 -11.4°
Enters shadow 22:06:04 10° 176° (S) 1,457 -1.4 -11.4°
